Weather in Khrushchevo

Russia / Ryazan Oblast     54°10′41″N   40°00′03″E
temp.,
°C
wind,
m/s
gust,
m/s
humid.,
%
clouds,
%
prec.,
mm/h
press.,
hPa
HPBL,
m
23 october, sat
sat2300:00+8wsw612695 0.0 1006529
03:00+6sw6127296 0.0 1007439
06:00+6sw6136743 0.0 1007585
09:00+7sw613653 0.0 1008735
12:00+10wsw81349100 0.0 10081371
15:00+10wsw7125179 0.0 10081615
18:00+8wsw6106298 0.0 10101086
21:00+5sw510715 0.0 1010319
24 october, sun
sun2400:00+4wsw612835 0.0 1011503
03:00+3wsw5128121 0.0 1012474
06:00+4wsw51076100 0.0 1012696
09:00+5wsw6117595 0.0 1012694
12:00+4w6107870 0.1 1013846
15:00+5w7977100 0.3 1014926
18:00+2wnw71191100 0.1 1015745
21:00+1nw7129270 0.4 1017815
25 october, mon
mon2500:00+1nnw7128179 0.1 1019927
03:000nnw71271100 0.1 10211099
06:00−1nnw7138226 0.0 1024728
09:000nnw612765 0.0 1026647
12:00+3nnw68515 0.0 1028949
15:00+4nnw56465 0.0 10281050
18:00+1nw3360100 0.0 103050
21:000w33655 0.0 103046
26 october, tue
tue2600:00−1wsw377222 0.0 1030126
03:00−1sw4117249 0.0 1030227
06:00−1sw5137392 0.0 1028286
09:00+1wsw6136420 0.0 1028401
12:00+6wsw71246100 0.0 1027606
15:00+6wsw71346100 0.0 1025660
18:00+4sw6155534 0.0 1025434
21:00+3wsw6155844 0.0 1024428
27 october, wed
wed2700:00+2wsw6146281 0.0 1024388
03:00+2sw61465100 0.0 1023365
06:00+1sw61367100 0.0 1022346
09:00+3sw61459100 0.0 1021456
12:00+6sw71549100 0.0 1019641
15:00+6sw71352100 0.0 1018728
18:00+5sw71360100 0.0 1017622
21:00+4wsw61266100 0.0 1017572